This is the latest recevied weather packets stored in our database for station/object CALDNA-WX. If no packets are shown the sender has not sent any weather packets the latest 10 day(s).
| Time | Temp. | Humidity | Pressure | Rain* | Wind** | Luminosity | Snow |
|---|---|---|---|---|---|---|---|
| 1777336233 | 15.56° C | 87% | 978.5 hPa | 0 mm | - | - | - |
| 1777335325 | 16.11° C | 87% | 978.5 hPa | 0 mm | - | - | - |
| 1777334448 | 16.11° C | 87% | 978.5 hPa | 0 mm | - | - | - |
| 1777333525 | 16.11° C | 84% | 979 hPa | 0 mm | - | - | - |
| 1777332637 | 17.22° C | 85% | 978.2 hPa | 0 mm | - | - | - |
| 1777331724 | 16.67° C | 85% | 978.2 hPa | 0 mm | - | - | - |
| 1777330843 | 16.67° C | 85% | 978.2 hPa | 0 mm | - | - | - |
| 1777329924 | 16.67° C | 81% | 978.7 hPa | 0 mm | - | - | - |
| 1777329037 | 16.11° C | 86% | 979.8 hPa | 0 mm | - | - | - |
| 1777328122 | 15.56° C | 86% | 979.7 hPa | 1.78 mm | - | - | - |
| 1777327244 | 15.56° C | 86% | 979.7 hPa | 1.78 mm | - | - | - |
| 1777326324 | 15.56° C | 92% | 980.6 hPa | 3.56 mm | - | - | - |
| 1777325436 | 16.67° C | 80% | 981 hPa | 3.05 mm | - | - | - |
| 1777324524 | 16.11° C | 80% | 981 hPa | 3.05 mm | - | - | - |
| 1777323643 | 16.67° C | 80% | 981 hPa | 3.05 mm | - | - | - |
| 1777322723 | 17.78° C | 59% | 981.5 hPa | 0.25 mm | - | - | - |
| 1777321835 | 18.33° C | 64% | 983 hPa | 0.25 mm | - | - | - |
| 1777320923 | 19.44° C | 64% | 982.9 hPa | 0 mm | - | - | - |
| 1777320040 | 20° C | 52% | 982.4 hPa | 0 mm | - | - | - |
| 1777319123 | 19.44° C | 45% | 981.4 hPa | 0 mm | - | - | - |
| 1777318238 | 20.56° C | 45% | 981.4 hPa | 0 mm | - | - | - |
| 1777317323 | 21.67° C | 45% | 981.6 hPa | 0 mm | - | - | - |
| 1777316445 | 21.67° C | 45% | 981.6 hPa | 0 mm | - | - | - |
| 1777315523 | 22.22° C | 46% | 984.9 hPa | 0 mm | - | - | - |
| 1777314634 | 21.67° C | 46% | 983.5 hPa | 0 mm | - | - | - |
* Rain latest hour (hover to see other rain measurements)
** Current wind speed in m/s (hover to see current wind gust speed)